[[{"header":{"parameterUnit":"m.s-1","parameterCategory":1,"la1":30.2991,"la2":30.254,"lo1":-89.0895,"lo2":-89.0444,"dy":0.0017,"dx":0.0017,"nx":28,"ny":28,"refTime":"2025-06-11T21:00:00:Z","depth":0,"parameterNumber":2,"parameterNumberName":"U-component_of_WINDS"},"data":[0,0,0,0,0,0,0,0,0,0,0,0,0,0,0,0,0,0,0,0,0,0,0,0,0,0,0,0,0,0,0,0,0,0,0,0,0,0,0,0,0,0,0,0,0,0,0,0,0,0,0,0,0,0,0,0,0,0,-1.6965,-1.6964,0,-1.6903,-1.6902,-1.6901,-1.6837,-1.6836,-1.6835,-1.6834,-1.677,-1.6769,-1.6768,0,0,0,0,0,0,0,0,0,0,0,0,0,-1.7027,-1.7027,-1.6965,-1.6964,-1.6963,-1.6903,-1.6902,-1.6901,-1.6837,-1.6836,-1.6835,-1.6834,-1.677,-1.6769,-1.6768,0,0,0,0,0,0,0,0,0,0,0,0,0,-1.6986,-1.7026,-1.6965,-1.6924,-1.6919,-1.6903,-1.6902,-1.6901,-1.6837,-1.6836,-1.6834,-1.6833,-1.677,-1.6769,-1.6768,-1.6787,0,0,-1.6764,-1.6763,0,0,0,0,0,0,0,0,-1.6989,-1.6984,-1.6931,-1.6927,-1.6922,-1.6876,-1.69,-1.6863,-1.6837,-1.6868,-1.6834,-1.6833,-1.6806,-1.6802,-1.6793,-1.6784,-1.6781,-1.6764,-1.6763,-1.6762,-1.6762,0,0,0,0,0,0,0,-1.6992,-1.6986,-1.694,-1.693,-1.6924,-1.6909,-1.6901,-1.6893,-1.6846,-1.6866,-1.6861,-1.6854,-1.6804,-1.6795,-1.6791,-1.678,-1.6764,-1.6763,-1.6762,-1.6761,-1.6784,-1.6785,0,0,0,0,0,0,-1.7001,-1.6989,-1.6942,-1.6938,-1.6953,-1.6909,-1.69,-1.6892,-1.6845,-1.6837,-1.6856,-1.6852,-1.6798,-1.6793,-1.6789,-1.6808,-1.6762,-1.6761,-1.676,-1.6782,-1.6784,-1.6785,0,0,0,0,0,0,-1.7002,-1.6997,-1.6944,-1.6962,-1.6954,-1.6909,-1.69,-1.6892,-1.6882,-1.6838,-1.6829,-1.6855,-1.6796,-1.6791,-1.6788,-1.6805,-1.6761,-1.6759,-1.6781,-1.6783,-1.6785,-1.6846,0,0,0,0,0,0,-1.7004,-1.6998,-1.7005,-1.6963,-1.6954,-1.6945,-1.6901,-1.6891,-1.6881,-1.6875,-1.6835,-1.6827,-1.6795,-1.679,-1.6787,-1.6802,-1.6758,-1.6779,-1.6782,-1.6784,-1.6843,-1.685,-1.6857,0,0,0,0,0,-1.7007,-1.7024,-1.7005,-1.7,-1.6961,-1.6946,-1.6941,-1.6903,-1.6882,-1.6888,-1.686,-1.6829,-1.6804,-1.6791,-1.6786,-1.6801,-1.6778,-1.6781,-1.6784,-1.6839,-1.6849,-1.6857,0,0,0,0,0,0,-1.7068,-1.7018,-1.6996,-1.7,-1.6978,-1.6935,-1.6941,-1.6914,-1.6897,-1.6892,-1.6846,-1.6838,-1.6841,-1.6821,-1.6807,-1.6818,-1.6786,-1.6789,-1.683,-1.6839,-1.6846,-1.685,-1.6757,0,0,0,0,0,-1.7082,-1.7074,-1.7031,-1.7038,-1.7028,-1.6987,-1.6979,-1.6953,-1.6927,-1.6917,-1.6889,-1.6865,-1.6852,-1.6844,-1.683,-1.684,-1.6831,-1.6848,-1.6856,-1.6862,-1.6864,-1.6868,-1.6876,-1.6796,-1.6796,-1.6796,0,0,-1.711,-1.7082,-1.708,-1.705,-1.7029,-1.7022,-1.698,-1.6974,-1.6968,-1.6916,-1.6912,-1.6891,-1.6862,-1.6866,-1.6866,-1.6849,-1.6884,-1.6866,-1.6871,-1.687,-1.6872,-1.688,-1.6887,-1.6798,-1.6797,-1.6797,0,0,-1.7159,-1.7137,-1.7141,-1.7122,-1.7092,-1.7065,-1.7066,-1.7027,-1.7011,-1.7007,-1.6968,-1.6961,-1.6939,-1.692,-1.6908,-1.6952,-1.6923,-1.6949,-1.6985,-1.699,-1.6997,-1.7002,-1.7018,-1.7024,-1.6951,-1.6951,-1.6951,0,-1.7198,-1.7186,-1.7147,-1.7144,-1.7132,-1.7086,-1.709,-1.7073,-1.704,-1.7033,-1.7015,-1.6988,-1.6965,-1.6965,-1.6976,-1.6967,-1.6967,-1.6952,-1.6999,-1.7004,-1.7008,-1.7023,-1.7029,-1.6955,-1.6954,-1.6954,-1.6954,0,-1.7236,-1.7228,-1.7236,-1.7205,-1.7194,-1.7195,-1.7156,-1.715,-1.7125,-1.71,-1.7097,-1.7068,-1.7048,-1.7046,-1.7021,-1.7042,-1.7032,-1.7008,-1.6975,-1.702,-1.7033,-1.7038,-1.696,-1.6958,-1.6957,-1.6956,0,0,-1.7319,-1.7269,-1.7272,-1.7258,-1.7222,-1.7216,-1.7215,-1.7195,-1.7191,-1.717,-1.7169,-1.7153,-1.713,-1.7116,-1.7089,-1.7093,-1.713,-1.7067,-1.7066,-1.708,-1.7152,-1.7171,-1.7178,-1.7111,-1.7112,-1.7113,-1.7155,0,-1.7361,-1.7357,-1.7322,-1.7328,-1.7321,-1.7278,-1.7277,-1.7256,-1.7233,-1.7224,-1.7198,-1.7187,-1.7158,-1.715,-1.7152,-1.7125,-1.7144,-1.7122,-1.7109,-1.7109,-1.7117,-1.7185,-1.7204,-1.7245,-1.7159,-1.716,-1.7161,0,-1.7409,-1.7392,-1.7397,-1.7363,-1.7358,-1.7358,-1.7338,-1.733,-1.7305,-1.7288,-1.7274,-1.7244,-1.7241,-1.7211,-1.7207,-1.7193,-1.7186,-1.7172,-1.7173,-1.7169,-1.7137,-1.7183,-1.7257,-1.7263,-1.7168,-1.7168,-1.7167,0,-1.747,-1.7448,-1.7448,-1.7438,-1.7397,-1.7399,-1.7382,-1.7355,-1.7346,-1.7329,-1.7323,-1.7305,-1.7296,-1.7283,-1.7249,-1.7231,-1.7249,-1.7217,-1.7235,-1.7236,-1.724,-1.724,-1.7313,-1.7237,-1.7236,-1.7236,-1.7236,0,-1.752,-1.7524,-1.7475,-1.7475,-1.748,-1.7441,-1.7446,-1.7425,-1.7403,-1.7398,-1.736,-1.7357,-1.7313,-1.7305,-1.7279,-1.7279,-1.7275,-1.7262,-1.7254,-1.7265,-1.7266,-1.7259,-1.7255,-1.7238,-1.7238,-1.7237,-1.7237,0,-1.7587,-1.7554,-1.7552,-1.7515,-1.7505,-1.751,-1.7478,-1.7477,-1.7453,-1.7448,-1.7445,-1.7406,-1.7395,-1.736,-1.734,-1.7322,-1.7331,-1.7318,-1.734,-1.7335,-1.7355,-1.7354,-1.7426,-1.7433,-1.7352,-1.7353,-1.7354,0,-1.7621,-1.7624,-1.7587,-1.7582,-1.7567,-1.7558,-1.7549,-1.7512,-1.7504,-1.7476,-1.7479,-1.7465,-1.7451,-1.7435,-1.7406,-1.739,-1.7376,-1.7403,-1.7373,-1.7384,-1.7376,-1.7376,-1.7377,-1.7409,-1.741,-1.7411,-1.7411,0,-1.7685,-1.7669,-1.7657,-1.764,-1.763,-1.7615,-1.7598,-1.7596,-1.7553,-1.7547,-1.7535,-1.7525,-1.7505,-1.7491,-1.7472,-1.7454,-1.7426,-1.7421,-1.7424,-1.7434,-1.7447,-1.744,-1.7356,-1.7419,-1.7418,-1.7418,-1.7417,-1.7417,-1.7736,-1.7737,-1.7711,-1.77,-1.7683,-1.7668,-1.7666,-1.7642,-1.7631,-1.7612,-1.7591,-1.7582,-1.7558,-1.7529,-1.7514,-1.7507,-1.7491,-1.7496,-1.7497,-1.7499,-1.7504,-1.7449,-1.7503,-1.7503,-1.7502,-1.7502,-1.7502,0,-1.7797,-1.7779,-1.7769,-1.7747,-1.7738,-1.7713,-1.7693,-1.7687,-1.768,-1.766,-1.7648,-1.7636,-1.7623,-1.7593,-1.7578,-1.7578,-1.7564,-1.7575,-1.7574,-1.7571,-1.7518,-1.7517,-1.7586,-1.7586,-1.7586,-1.7586,-1.7586,-1.7586,-1.7828,-1.7829,-1.781,-1.7802,-1.7784,-1.7775,-1.7766,-1.7752,-1.7736,-1.7724,-1.7713,-1.7694,-1.7671,-1.7653,-1.7641,-1.7632,-1.7628,-1.7643,-1.7631,-1.7582,-1.7574,-1.7567,-1.7565,-1.7643,-1.7643,-1.7683,-1.7684,-1.7684]},{"header":{"parameterUnit":"m.s-1","parameterCategory":1,"la1":30.2991,"la2":30.254,"lo1":-89.0895,"lo2":-89.0444,"dy":0.0017,"dx":0.0017,"nx":28,"ny":28,"refTime":"2025-06-11T21:00:00:Z","depth":0,"parameterNumber":3,"parameterNumberName":"V-component_of_WINDS"},"data":[0,0,0,0,0,0,0,0,0,0,0,0,0,0,0,0,0,0,0,0,0,0,0,0,0,0,0,0,0,0,0,0,0,0,0,0,0,0,0,0,0,0,0,0,0,0,0,0,0,0,0,0,0,0,0,0,0,0,3.4947,3.4946,0,3.4911,3.4911,3.4911,3.4935,3.4936,3.4937,3.4938,3.4899,3.4897,3.4895,0,0,0,0,0,0,0,0,0,0,0,0,0,3.5033,3.5031,3.4947,3.4946,3.4946,3.4912,3.4911,3.4911,3.4935,3.4936,3.4938,3.4939,3.4899,3.4897,3.4894,0,0,0,0,0,0,0,0,0,0,0,0,0,3.4996,3.5031,3.4947,3.4954,3.4954,3.4912,3.4911,3.491,3.4935,3.4936,3.4938,3.4939,3.49,3.4897,3.4894,3.4841,0,0,3.4884,3.4883,0,0,0,0,0,0,0,0,3.4998,3.4993,3.4953,3.4953,3.4954,3.4929,3.4927,3.4887,3.4934,3.4942,3.4938,3.494,3.4907,3.4904,3.4893,3.4839,3.4838,3.4884,3.4882,3.4881,3.488,0,0,0,0,0,0,0,3.5001,3.4995,3.4933,3.4953,3.4953,3.4958,3.4955,3.4919,3.4916,3.4941,3.4943,3.4939,3.4908,3.4896,3.4893,3.4837,3.4884,3.4881,3.4879,3.4878,3.4739,3.4737,0,0,0,0,0,0,3.5003,3.4997,3.4934,3.4932,3.4981,3.4955,3.4951,3.4935,3.4916,3.4915,3.4937,3.494,3.4901,3.4896,3.4891,3.4829,3.4881,3.4878,3.4876,3.4741,3.4738,3.4737,0,0,0,0,0,0,3.5005,3.4997,3.4935,3.4965,3.4957,3.4952,3.4934,3.4934,3.4923,3.4913,3.4912,3.4927,3.4902,3.4896,3.4854,3.4828,3.4877,3.4874,3.4743,3.474,3.4737,3.4703,0,0,0,0,0,0,3.5007,3.4998,3.4978,3.4964,3.4956,3.4899,3.4932,3.4932,3.4917,3.4921,3.4903,3.4901,3.4903,3.4858,3.4851,3.4824,3.4871,3.4745,3.4742,3.4738,3.4706,3.4699,3.4693,0,0,0,0,0,3.501,3.4969,3.4977,3.4969,3.4931,3.4898,3.4893,3.4896,3.4915,3.4895,3.4889,3.4902,3.4832,3.4854,3.4846,3.4818,3.4747,3.4743,3.4739,3.4709,3.4701,3.4693,0,0,0,0,0,0,3.4979,3.4967,3.4976,3.4929,3.4914,3.4902,3.4877,3.4887,3.4865,3.4869,3.4873,3.4869,3.4825,3.4817,3.4842,3.4766,3.4792,3.4786,3.4773,3.4764,3.4758,3.4761,3.4869,0,0,0,0,0,3.4967,3.4941,3.4932,3.4892,3.4884,3.4882,3.4867,3.4871,3.4856,3.4849,3.484,3.4823,3.4798,3.4781,3.4757,3.4705,3.4702,3.4682,3.4676,3.467,3.4665,3.4637,3.4629,3.4723,3.4723,3.4723,0,0,3.494,3.4931,3.4915,3.4885,3.4874,3.4847,3.4876,3.4846,3.4826,3.4844,3.4805,3.4797,3.4779,3.4733,3.4712,3.4725,3.4638,3.4665,3.4661,3.4658,3.4632,3.4623,3.4615,3.472,3.4721,3.4721,0,0,3.488,3.487,3.4836,3.4825,3.4808,3.4807,3.4799,3.4785,3.4781,3.4742,3.4755,3.4731,3.4687,3.4673,3.4661,3.4596,3.4607,3.4588,3.4554,3.4527,3.4519,3.4513,3.449,3.4482,3.4583,3.4583,3.4583,0,3.4849,3.481,3.4816,3.4786,3.4772,3.4789,3.4754,3.4742,3.4718,3.4708,3.4723,3.4669,3.4658,3.4609,3.4593,3.4582,3.4573,3.459,3.452,3.4514,3.4508,3.4486,3.4477,3.458,3.4581,3.4581,3.4581,0,3.4774,3.4746,3.472,3.4698,3.4682,3.4649,3.465,3.4632,3.4638,3.4635,3.4595,3.4582,3.4556,3.4545,3.455,3.4496,3.4505,3.452,3.4547,3.4496,3.4476,3.4467,3.4577,3.4578,3.4579,3.4579,0,0,3.4691,3.4674,3.4664,3.4655,3.4638,3.4617,3.4585,3.4561,3.4545,3.4528,3.4501,3.4464,3.4478,3.4464,3.4468,3.4444,3.4394,3.4462,3.4462,3.445,3.4335,3.4323,3.4314,3.4401,3.44,3.4398,3.4336,0,3.4629,3.4575,3.458,3.4528,3.4502,3.4518,3.4491,3.4477,3.4474,3.4451,3.4447,3.4421,3.4441,3.4433,3.4411,3.4405,3.4371,3.4409,3.4375,3.4374,3.4379,3.4303,3.4291,3.4232,3.4328,3.4327,3.4326,0,3.455,3.4532,3.4477,3.4466,3.4455,3.443,3.4409,3.4387,3.4372,3.4372,3.4356,3.4364,3.4331,3.4359,3.4313,3.434,3.4326,3.4321,3.4319,3.4316,3.4347,3.4297,3.4214,3.4205,3.4313,3.4314,3.4315,0,3.4495,3.4457,3.442,3.4411,3.4396,3.4379,3.4371,3.4358,3.4344,3.4325,3.4315,3.4292,3.4279,3.4261,3.4262,3.4282,3.4216,3.4244,3.4214,3.4214,3.4198,3.4199,3.4112,3.419,3.419,3.419,3.4191,0,3.4426,3.4392,3.4395,3.4372,3.4335,3.4341,3.4303,3.4298,3.4286,3.4262,3.4274,3.4251,3.4254,3.4231,3.4231,3.4194,3.4187,3.4186,3.4186,3.4184,3.4185,3.4175,3.4179,3.4188,3.4189,3.4189,3.4189,0,3.4358,3.4359,3.432,3.431,3.4306,3.4279,3.427,3.4248,3.4246,3.4215,3.4208,3.4205,3.4178,3.4178,3.4146,3.4147,3.4101,3.4106,3.4106,3.4107,3.4077,3.408,3.398,3.3968,3.4054,3.4054,3.4053,0,3.4314,3.4289,3.4276,3.4261,3.4254,3.4229,3.4215,3.422,3.4204,3.4186,3.4166,3.4141,3.412,3.4077,3.4071,3.4047,3.4052,3.4018,3.4048,3.4047,3.4051,3.4052,3.405,3.4012,3.4011,3.401,3.401,0,3.4235,3.4237,3.4217,3.4196,3.4179,3.4163,3.4148,3.4135,3.4138,3.4119,3.4093,3.4077,3.4046,3.4021,3.3998,3.399,3.4,3.4001,3.3993,3.399,3.3992,3.3991,3.409,3.4003,3.4004,3.4004,3.4004,3.4005,3.4178,3.4156,3.4144,3.4121,3.4111,3.4097,3.4076,3.4072,3.405,3.4026,3.403,3.4,3.3986,3.3957,3.3947,3.3923,3.3935,3.3923,3.392,3.3917,3.3914,3.3996,3.3919,3.3919,3.3919,3.392,3.392,0,3.41,3.4093,3.4072,3.4051,3.4033,3.4046,3.403,3.4013,3.3987,3.3974,3.3954,3.3924,3.3899,3.3892,3.3868,3.3851,3.3855,3.3844,3.3846,3.3844,3.3905,3.3914,3.3842,3.3842,3.3842,3.3842,3.3842,3.3842,3.4057,3.4021,3.4022,3.3981,3.3975,3.3946,3.3936,3.3923,3.3913,3.3879,3.3859,3.3855,3.3844,3.382,3.3798,3.3796,3.3787,3.3774,3.3774,3.3831,3.3839,3.3847,3.3856,3.3772,3.3772,3.3715,3.3715,3.3714]}]]